Retour au catalogue

STARLINK-35742

ActifCommunicationsVLEO
NORAD 66276·PAYLOAD·🇺🇸 United States

Lancé Oct 31, 2025 depuis Vandenberg Space Force Base

Loading…

Prochains Passages (prochaines 24 heures)

TLE

FraisSource: CelesTrak SupGP

Époque: Sep 15, 2026, 03:25 UTC

1 66276C 25247M   26258.14284722  .00033770  00000+0  99776-3 0  2588
2 66276  53.1587  28.8640 0001104  92.2519   2.9287 15.34373571    18

Suivez STARLINK-35742 en temps réel avec AllMySat

Download on the App Store